Flag for United Kingdom Weather past 2 weeks in Kingston upon Hull, England, United Kingdom

Now
52 °F

Broken clouds.


Feels Like: 45 °F
Forecast: 40 / 57 °F
Wind: 23 mph from Southwest

Location: Humberside

Current Time: Mar 28, 2015 at 10:17:25 AM

Latest Report: Mar 28, 2015 at 9:50 AM


Visibility: N/A

Pressure: 29.68 "Hg

Humidity: 94%

Dew point: 50 °F

Location of Kingston upon HullLocation

Historic Weather in Kingston upon Hull — Graph

°F

Kingston upon Hull temperature yesterday

Maximum temperature yesterday: 54 °F (at 2:50 PM)
Minimum temperature yesterday: 37 °F (at 4:20 AM)
Average temperature yesterday: 45 °F

Past Weeks' High & Low Weather Summary

 TemperatureHumidityPressure
High57 °F (Mar 20, 1:50 PM)100% (Mar 17, 5:50 AM)30.57 "Hg (Mar 17, 5:50 AM)
Low30 °F (Mar 18, 2:20 AM)41% (Mar 27, 2:50 PM)29.42 "Hg (Mar 26, 8:50 AM)
Average43 °F81%30.19 "Hg
* Reported Mar 13 9:20 AM — Mar 28 9:20 AM, Kingston upon Hull, Weather by CustomWeather, © 2015

Note: Actual official high and low records may vary slightly from our data, if they occured in-between our weather recording intervals... More about our weather records

Advertising

Kingston upon Hull weather history for previous 24 hours

 ConditionsComfort  
Time TempWeatherWind HumidityBarometerVisibility
9:20 AM
Sat, Mar 28
50 °FPartly sunny.22 mph94%29.65 "Hg4 mi
8:50 AM50 °FFog.22 mph94%29.68 "Hg3 mi
8:20 AM48 °FFog.21 mph94%29.71 "Hg2 mi
7:50 AM46 °FDrizzle. Fog.22 mph93%29.74 "Hg2 mi
7:20 AM46 °FFog.24 mph93%29.74 "Hg2 mi
6:50 AM45 °FDrizzle. Broken clouds.23 mph93%29.77 "Hg2 mi
6:20 AM45 °FDrizzle. Broken clouds.22 mph93%29.80 "Hg2 mi
5:50 AM45 °FDrizzle. Broken clouds.20 mph93%29.83 "Hg2 mi
5:20 AM45 °FDrizzle. Mostly cloudy.20 mph93%29.86 "Hg1 mi
4:50 AM43 °FDrizzle. Mostly cloudy.16 mph100%29.86 "Hg1 mi
4:20 AM45 °FRain. Partly cloudy.15 mph87%29.89 "Hg3 mi
3:20 AM45 °FOvercast.12 mph81%29.92 "HgN/A
2:50 AM46 °FOvercast.12 mph71%29.95 "HgN/A
2:20 AM45 °FOvercast.12 mph71%29.98 "HgN/A
1:50 AM45 °FPassing clouds.12 mph71%29.98 "HgN/A
1:20 AM43 °FPassing clouds.12 mph76%30.01 "HgN/A
12:50 AM41 °FQuite cool.10 mph81%30.04 "HgN/A
12:20 AM41 °FPassing clouds.7 mph76%30.04 "HgN/A
11:50 PM
Fri, Mar 27
41 °FPassing clouds.8 mph76%30.04 "HgN/A
11:20 PM43 °FOvercast.3 mph71%30.07 "Hg6 mi
10:50 PM43 °FQuite cool.5 mph76%30.07 "Hg4 mi
10:20 PM41 °FHaze.3 mph81%30.07 "Hg3 mi
9:50 PM41 °FOvercast.7 mph81%30.09 "HgN/A
9:20 PM39 °FPassing clouds.2 mph81%30.09 "HgN/A
8:50 PM39 °FPassing clouds.2 mph75%30.09 "HgN/A
8:20 PM41 °FPassing clouds.3 mph76%30.09 "HgN/A
7:50 PM41 °FPassing clouds.5 mph70%30.09 "HgN/A
7:20 PM43 °FPassing clouds.5 mph71%30.09 "HgN/A
6:50 PM43 °FPassing clouds.5 mph71%30.09 "HgN/A
6:20 PM48 °FPassing clouds.6 mph58%30.09 "HgN/A
5:50 PM50 °FPassing clouds.9 mph50%30.09 "HgN/A
5:20 PM52 °FPassing clouds.10 mph44%30.07 "HgN/A
4:50 PM52 °FScattered clouds.9 mph47%30.09 "HgN/A
4:20 PM52 °FScattered clouds.9 mph47%30.07 "HgN/A
3:50 PM52 °FScattered clouds.10 mph47%30.07 "HgN/A
3:20 PM52 °FPartly sunny.14 mph44%30.07 "HgN/A
2:50 PM54 °FPartly sunny.10 mph41%30.07 "HgN/A
2:20 PM52 °FPartly sunny.8 mph47%30.07 "HgN/A
1:50 PM52 °FPartly sunny.10 mph47%30.07 "HgN/A
1:20 PM52 °FPartly sunny.9 mph44%30.07 "HgN/A
12:50 PM52 °FPartly sunny.12 mph47%30.07 "HgN/A
12:20 PM50 °FPartly sunny.12 mph50%30.07 "HgN/A
11:50 AM50 °FScattered clouds.13 mph50%30.07 "HgN/A
11:20 AM50 °FScattered clouds.12 mph54%30.07 "HgN/A
10:50 AM50 °FScattered clouds.13 mph54%30.07 "HgN/A
10:20 AM48 °FPassing clouds.14 mph58%30.07 "HgN/A
Weather by CustomWeather, © 2015

See weather overviewHow to use our weather pages